This is the latest recevied weather packets stored in our database for station/object KB9PMA-1. If no packets are shown the sender has not sent any weather packets the latest 10 day(s).
| Time | Temp. | Humidity | Pressure | Rain* | Wind** | Luminosity | Snow |
|---|---|---|---|---|---|---|---|
| 1777647188 | 7.22° C | 88% | 1015.7 hPa | 0 mm | - | - | - |
| 1777646888 | 6.67° C | 93% | 1015.5 hPa | 0 mm | - | - | - |
| 1777646588 | 6.11° C | 95% | 1015.5 hPa | 0 mm | - | - | - |
| 1777646288 | 6.11° C | 93% | 1015.5 hPa | 0 mm | - | - | - |
| 1777645988 | 5.56° C | 92% | 1015.7 hPa | 0 mm | - | - | - |
| 1777645688 | 5.56° C | 93% | 1015.6 hPa | 0 mm | - | - | - |
| 1777645388 | 5.56° C | 93% | 1015.6 hPa | 0 mm | - | - | - |
| 1777645088 | 5.56° C | 93% | 1015.5 hPa | 0 mm | - | - | - |
| 1777644788 | 5.56° C | 94% | 1015.4 hPa | 0 mm | - | - | - |
| 1777644488 | 5.56° C | 95% | 1015.3 hPa | 0 mm | - | - | - |
| 1777644188 | 5.56° C | 95% | 1015.2 hPa | 0 mm | - | - | - |
| 1777643888 | 5.56° C | 95% | 1015.1 hPa | 0 mm | - | - | - |
| 1777643588 | 5.56° C | 95% | 1015 hPa | 0 mm | - | - | - |
| 1777643288 | 5.56° C | 95% | 1015 hPa | 0 mm | - | - | - |
| 1777642988 | 5.56° C | 95% | 1014.9 hPa | 0 mm | - | - | - |
| 1777642688 | 5.56° C | 95% | 1014.9 hPa | 0 mm | - | - | - |
| 1777642388 | 5.56° C | 95% | 1014.9 hPa | 0 mm | - | - | - |
| 1777642088 | 5.56° C | 95% | 1014.8 hPa | 0 mm | - | - | - |
| 1777641788 | 5.56° C | 96% | 1014.7 hPa | 0 mm | - | - | - |
| 1777641488 | 5.56° C | 96% | 1014.6 hPa | 0 mm | - | - | - |
| 1777641188 | 5.56° C | 96% | 1014.5 hPa | 0 mm | - | - | - |
| 1777640888 | 5.56° C | 96% | 1014.4 hPa | 0 mm | - | - | - |
| 1777640588 | 5.56° C | 95% | 1014.2 hPa | 0 mm | - | - | - |
| 1777640288 | 5° C | 96% | 1014.2 hPa | 0 mm | - | - | - |
| 1777639988 | 5° C | 96% | 1014.2 hPa | 0 mm | - | - | - |
* Rain latest hour (hover to see other rain measurements)
** Current wind speed in m/s (hover to see current wind gust speed)